Orbital Elements
Epoch 2020 Nov. 7.0 TT = JDT 2459160.5
T 2020 Oct. 20.88502 TT Rudenko
q 3.3808591 (2000.0) P Q
n 0.06112678 Peri. 194.04863 +0.30501181 +0.89476006
a 6.3823663 Node 94.51328 -0.83912907 +0.41445212
e 0.4702812 Incl. 19.09661 -0.45036675 -0.16623438
P 16.1
From 214 observations 2003 May 30-2021 July 16, mean residual 1".0.
|